Regional Weather Roundup
Issued by NWS

Home | Current Version | Previous Version | Text Only | Print | Product List | Glossary Off
Versions: 1 2 3 4 5 6 7 8 9 10 11 12 13 14 15 16 17 18 19 20 21 22 23 24 25 26 27 28 29 30 31 32 33 34 35 36 37 38 39 40 41 42 43 44 45 46 47 48 49 50

000
ASUS43 KDTX 300401
RWRMI
MICHIGAN HOURLY REGIONAL WEATHER ROUNDUP
NATIONAL WEATHER SERVICE DETROIT/PONTIAC MI
1200 AM EDT THU OCT 30 2014

NOTE: "FAIR" INDICATES FEW OR NO CLOUDS BELOW 12,000 FEET WITH NO
SIGNIFICANT WEATHER AND/OR OBSTRUCTION TO VISIBILITY.

MIZ047>049-052>055-059>063-066>070-074>076-081>083-300500-
SOUTHEAST LOWER MICHIGAN

CITY           SKY/WX    TMP DP  RH WIND       PRES   REMARKS
ADRIAN         CLOUDY    42  38  85 NW3       30.10S
ALMA           CLEAR     33  32  96 CALM      30.10R
ANN ARBOR      CLOUDY    42  35  76 NW6       30.08S
BAD AXE        CLOUDY    43  36  76 N6        30.06S
CARO           CLOUDY    43  37  78 NW5       30.07S
DETROIT CITY   CLOUDY    48  36  63 NW6       30.07S
DETROIT        CLOUDY    44  37  76 W6        30.08S
FLINT          CLEAR     41  34  76 NW7       30.09S
GROSSE ILE     CLOUDY    45  37  76 W5        30.07S
HILLSDALE      CLOUDY    42  40  93 W5        30.09S
HOWELL         CLOUDY    42  36  78 NW7       30.08S

CITY           SKY/WX    TMP DP  RH WIND       PRES   REMARKS
JACKSON        MOCLDY    40  35  83 NW5       30.09S
LAMBERTVILLE   CLOUDY    43  37  81 W5        30.10S
LANSING        CLEAR     38  33  82 W3        30.10S
LAPEER         CLOUDY    42  35  75 NW5       30.07S
MASON          CLEAR     39  35  85 W3        30.09F
MONROE         CLOUDY    43  37  81 W5        30.07S
MT. CLEMENS    CLOUDY    46  38  74 NW7       30.04S
PONTIAC        CLOUDY    44  35  70 NW8       30.06S
PORT HOPE        N/A     45  36  70 NW5       30.03S
PORT HURON     MOCLDY    41  36  81 NW5       30.06R
TRI CITIES     PTCLDY    40  35  83 W6        30.09S
TROY           CLOUDY    47  35  63 NW9       30.09R
SAGINAW HB     PTCLDY    39  34  81 W6        30.08S WCI  35
$$
MIZ043>046-050>051-056>058-064>065-071>073-077>080-300500-
SOUTHWEST LOWER MICHIGAN

CITY           SKY/WX    TMP DP  RH WIND       PRES   REMARKS
BATTLE CREEK   CLOUDY    42  35  76 CALM      30.11S
BENTON HARBOR  CLOUDY    47  34  60 NW3       30.12S
BIG RAPIDS     CLEAR     32  32 100 CALM      30.08S
COLDWATER      CLOUDY    42  39  90 W3        30.11S
FREMONT        CLOUDY    40  37  90 CALM      30.09S
HOLLAND        CLOUDY    45  40  82 SE3       30.11S
GRAND RAPIDS   PTCLDY    37  34  89 SW3       30.11S
IONIA          FAIR      36  34  92 W6        30.09S WCI  31
KALAMAZOO      CLOUDY    44  36  73 N3        30.11F
LUDINGTON      CLOUDY    42  39  89 CALM      30.10S
MARSHALL       MOCLDY    35  33  93 CALM      30.10S
MOUNT PLEASANT CLEAR     34  32  94 W3        30.08S
MUSKEGON       CLOUDY    45  38  76 CALM      30.11R
SOUTH HAVEN    CLOUDY    49  37  62 NW5       30.11S
$$
MIZ016>042-300500-
NORTHERN LOWER MICHIGAN

CITY           SKY/WX    TMP DP  RH WIND       PRES   REMARKS
ALPENA         PTCLDY    38  30  73 NW9       30.06R WCI  31
BEAVER ISLAND  CLEAR     40  33  78 NW5       30.08S
BELLAIRE       CLOUDY    42  34  72 N3        30.08S
CADILLAC       CLOUDY    38  36  91 W3        30.06S
CHARLEVOIX     MOCLDY    40  34  77 NW7       30.10S
FRANKFORT      CLOUDY    43  39  88 CALM      30.08S
GAYLORD        CLOUDY    36  32  85 CALM      30.05S
GRAYLING       MOCLDY    36  34  93 CALM      30.07S
HARBOR SPRINGS CLEAR     35  31  85 CALM      30.07S
HOUGHTON LAKE  CLOUDY    38  36  92 NW3       30.07R
MANISTEE       CLOUDY    41  37  87 CALM      30.09F
OSCODA         CLOUDY    42  34  74 NW5       30.05S
PELLSTON       PTCLDY    37  31  78 N9        30.07S WCI  30
TRAVERSE CITY  CLOUDY    45  36  70 CALM      30.07S
$$
MIZ007>008-015-300500-
EASTERN UPPER MICHIGAN

CITY           SKY/WX    TMP DP  RH WIND       PRES   REMARKS
KINROSS        CLOUDY    34  34 100 SW6       30.04R WCI  29
MACKINAC ISLAN MOCLDY    37  31  79 NW8       30.06S WCI  31
NEWBERRY       CLEAR     32  31  96 W5        30.05S WCI  27
S. S. MARIE    CLOUDY    38  34  85 CALM      30.03S
MUNISING         N/A     41  35  79 SW3       30.07S
$$
MIZ004>006-011>014-085-300500-
CENTRAL UPPER MICHIGAN

CITY           SKY/WX    TMP DP  RH WIND       PRES   REMARKS
MANISTIQUE     PTCLDY    28  27  97 NW3       30.07S
ESCANABA       CLOUDY    36  32  87 NW3       30.09R
MENOMINEE      CLOUDY    43  34  70 N7        30.09S
SAWYER-GWINN   MOCLDY    35  32  90 CALM      30.06S
$$
MIZ001>003-009>011-084-300500-
WESTERN UPPER MICHIGAN

CITY           SKY/WX    TMP DP  RH WIND       PRES   REMARKS
IRON MOUNTAIN  CLOUDY    40  33  76 W3        30.07S
HOUGHTON       CLOUDY    39  34  82 W5        30.03F
COPPER HARBOR    N/A     40  35  83 W3        30.05S
IRONWOOD       CLOUDY    37  34  87 SW6       30.05S WCI  33
$$

ABBREVIATIONS USED IN REMARKS
   TC - TEMPERATURE IN CELSIUS
  WCI - WIND CHILL INDEX
   HX - HEAT INDEX
  VSB - VISIBILITY




USA.gov is the U.S. government's official web portal to all federal, state and local government web resources and services.